Location: ????????
(55.0808°N, 38.5463°E)
Time: 15:22:25
(UTC+00:00)

Cosmos 2266 Rocket - Visible Passes

Search period start: 12 July 2024 00:00
Search period end: 22 July 2024 00:00
Orbit: 934 x 1007 km, 82.9° (Epoch: 11 July)

Date Brightness Start Highest point End Pass type
(mag) Time Alt. Az. Time Alt. Az. Time Alt. Az.
13 Jul 7.0 23:42:26 10° NNE 23:45:31 14° NE 23:48:34 10° ENE visible
15 Jul 6.7 00:05:40 10° N 00:10:07 20° NE 00:14:29 10° E visible
16 Jul 7.1 23:09:28 10° NNE 23:11:37 12° NE 23:13:44 10° ENE visible
17 Jul 6.7 23:32:22 10° N 23:36:17 17° NE 23:40:07 10° E visible
18 Jul 6.4 23:55:49 10° N 00:00:46 25° ENE 00:05:38 10° ESE visible
20 Jul 5.7 00:19:28 10° N 00:25:06 36° ENE 00:30:38 10° SE visible
20 Jul 6.8 22:59:08 10° NNE 23:02:24 14° NE 23:05:38 10° E visible
21 Jul 6.5 23:22:25 10° N 23:26:58 21° NE 23:31:27 10° ESE visible
